Time,TemperatureF,DewpointF,PressureIn,WindDirection,WindDirectionDegrees,WindSpeedMPH,WindSpeedGustMPH,Humidity,HourlyPrecipIn,Conditions,Clouds,dailyrainin,SolarRadiationWatts/m^2,SoftwareType,DateUTC
2013-02-06 00:00:00,23.8,20.8,29.87,SSW,202,1.0,2.0,88,0.00,,OVC021,0.00,0.00,VWS V14.01,2013-02-06 05:00:00,
2013-02-06 00:05:00,23.8,20.8,29.87,SSW,202,0.0,2.0,88,0.00,,OVC021,0.00,0.00,VWS V14.01,2013-02-06 05:05:00,
2013-02-06 00:10:00,23.8,20.8,29.87,SSW,202,0.0,0.0,88,0.00,,OVC021,0.00,0.00,VWS V14.01,2013-02-06 05:10:00,
2013-02-06 00:15:00,23.8,20.8,29.87,SSW,202,0.0,0.0,88,0.00,,OVC021,0.00,0.00,VWS V14.01,2013-02-06 05:15:00,
2013-02-06 00:20:00,23.8,20.8,29.87,SSW,202,1.0,2.0,88,0.00,,OVC021,0.00,0.00,VWS V14.01,2013-02-06 05:20:00,
2013-02-06 00:25:00,23.9,21.1,29.87,SW,232,2.0,4.0,89,0.00,,OVC021,0.00,0.00,VWS V14.01,2013-02-06 05:25:00,
2013-02-06 00:30:00,23.9,20.9,29.88,WNW,298,2.0,4.0,88,0.00,,OVC021,0.00,0.00,VWS V14.01,2013-02-06 05:30:00,
2013-02-06 00:35:00,23.9,21.1,29.87,WNW,299,0.0,3.0,89,0.00,,OVC021,0.00,0.00,VWS V14.01,2013-02-06 05:35:00,
2013-02-06 00:40:00,23.8,21.0,29.88,WNW,299,2.0,3.0,89,0.00,,OVC021,0.00,0.00,VWS V14.01,2013-02-06 05:40:00,
2013-02-06 00:45:00,23.9,21.1,29.88,WNW,299,1.0,3.0,89,0.00,,OVC021,0.00,0.00,VWS V14.01,2013-02-06 05:45:00,
2013-02-06 00:50:00,23.9,21.1,29.88,WNW,299,2.0,2.0,89,0.00,,OVC021,0.00,0.00,VWS V14.01,2013-02-06 05:50:00,
2013-02-06 00:55:00,23.9,21.1,29.88,WNW,299,2.0,3.0,89,0.00,,OVC021,0.00,0.00,VWS V14.01,2013-02-06 05:55:00,
2013-02-06 01:00:00,23.8,21.0,29.88,WNW,299,3.0,4.0,89,0.00,,OVC021,0.00,0.00,VWS V14.01,2013-02-06 06:00:00,
2013-02-06 01:05:00,23.8,21.0,29.87,WNW,299,0.0,3.0,89,0.00,,OVC021,0.00,0.00,VWS V14.01,2013-02-06 06:05:00,
2013-02-06 01:10:00,23.8,21.0,29.88,WNW,300,3.0,4.0,89,0.00,,OVC021,0.00,0.00,VWS V14.01,2013-02-06 06:10:00,
2013-02-06 01:15:00,23.8,21.0,29.88,NW,306,0.0,5.0,89,0.00,,OVC021,0.00,0.00,VWS V14.01,2013-02-06 06:15:00,
2013-02-06 01:20:00,23.8,21.0,29.88,NW,306,3.0,3.0,89,0.00,,OVC021,0.00,0.00,VWS V14.01,2013-02-06 06:20:00,
2013-02-06 01:25:00,23.8,21.0,29.88,NW,307,2.0,4.0,89,0.00,,OVC021,0.00,0.00,VWS V14.01,2013-02-06 06:25:00,
2013-02-06 01:30:00,23.7,20.9,29.89,NW,306,2.0,4.0,89,0.00,,OVC021,0.00,0.00,VWS V14.01,2013-02-06 06:30:00,
2013-02-06 01:35:00,23.7,20.9,29.89,NW,307,1.0,3.0,89,0.00,,OVC021,0.00,0.00,VWS V14.01,2013-02-06 06:35:00,
2013-02-06 01:40:00,23.7,21.2,29.89,NW,308,3.0,4.0,90,0.00,,OVC021,0.00,0.00,VWS V14.01,2013-02-06 06:40:00,
2013-02-06 01:45:00,23.7,21.2,29.88,NW,307,1.0,3.0,90,0.00,,OVC021,0.00,0.00,VWS V14.01,2013-02-06 06:45:00,
2013-02-06 01:50:00,23.6,21.1,29.88,NW,306,0.0,3.0,90,0.00,,OVC021,0.00,0.00,VWS V14.01,2013-02-06 06:50:00,
2013-02-06 01:55:00,23.6,21.1,29.88,NW,306,2.0,3.0,90,0.00,,OVC021,0.00,0.00,VWS V14.01,2013-02-06 06:55:00,
2013-02-06 02:00:00,23.6,21.1,29.88,NW,308,2.0,4.0,90,0.00,,OVC021,0.00,0.00,VWS V14.01,2013-02-06 07:00:00,
2013-02-06 02:05:00,23.6,21.1,29.88,NW,307,2.0,4.0,90,0.00,,OVC021,0.00,0.00,VWS V14.01,2013-02-06 07:05:00,
2013-02-06 02:10:00,23.6,21.1,29.88,NW,308,0.0,2.0,90,0.00,,OVC021,0.00,0.00,VWS V14.01,2013-02-06 07:10:00,
2013-02-06 02:15:00,23.6,21.1,29.88,NW,307,0.0,2.0,90,0.00,,OVC021,0.00,0.00,VWS V14.01,2013-02-06 07:15:00,
2013-02-06 02:20:00,23.6,21.1,29.88,NW,308,1.0,3.0,90,0.00,,OVC021,0.00,0.00,VWS V14.01,2013-02-06 07:20:00,
2013-02-06 02:25:00,23.5,21.0,29.88,NW,307,0.0,2.0,90,0.00,,OVC021,0.00,0.00,VWS V14.01,2013-02-06 07:25:00,
2013-02-06 02:30:00,23.5,21.0,29.88,NW,306,0.0,2.0,90,0.00,,OVC021,0.00,0.00,VWS V14.01,2013-02-06 07:30:00,
2013-02-06 02:35:00,23.5,21.0,29.88,NW,308,2.0,3.0,90,0.00,,OVC021,0.00,0.00,VWS V14.01,2013-02-06 07:35:00,
2013-02-06 02:40:00,23.5,21.0,29.87,NW,307,0.0,3.0,90,0.00,,OVC021,0.00,0.00,VWS V14.01,2013-02-06 07:40:00,
2013-02-06 02:45:00,23.5,21.0,29.87,NW,308,2.0,3.0,90,0.00,,OVC021,0.00,0.00,VWS V14.01,2013-02-06 07:45:00,
2013-02-06 02:50:00,23.5,21.0,29.87,NW,308,0.0,2.0,90,0.00,,OVC021,0.00,0.00,VWS V14.01,2013-02-06 07:50:00,
2013-02-06 02:55:00,23.5,21.0,29.87,NW,307,0.0,2.0,90,0.00,,OVC021,0.00,0.00,VWS V14.01,2013-02-06 07:55:00,
2013-02-06 03:00:00,23.5,21.0,29.87,NW,307,0.0,1.0,90,0.00,,OVC021,0.00,0.00,VWS V14.01,2013-02-06 08:00:00,
2013-02-06 03:05:00,23.5,21.0,29.87,NW,307,0.0,0.0,90,0.00,,OVC021,0.00,0.00,VWS V14.01,2013-02-06 08:05:00,
2013-02-06 03:10:00,23.5,21.0,29.87,NW,307,0.0,0.0,90,0.00,,OVC021,0.00,0.00,VWS V14.01,2013-02-06 08:10:00,
2013-02-06 03:15:00,23.4,20.9,29.86,NW,307,0.0,0.0,90,0.00,,OVC021,0.00,0.00,VWS V14.01,2013-02-06 08:15:00,
2013-02-06 03:20:00,23.4,20.9,29.86,NW,306,0.0,0.0,90,0.00,,OVC021,0.00,0.00,VWS V14.01,2013-02-06 08:20:00,
2013-02-06 03:25:00,23.4,20.9,29.86,NW,307,0.0,2.0,90,0.00,,OVC021,0.00,0.00,VWS V14.01,2013-02-06 08:25:00,
2013-02-06 03:30:00,23.3,20.8,29.86,NW,308,0.0,0.0,90,0.00,,OVC021,0.00,0.00,VWS V14.01,2013-02-06 08:30:00,
2013-02-06 03:35:00,23.3,20.8,29.86,NW,307,0.0,1.0,90,0.00,,OVC021,0.00,0.00,VWS V14.01,2013-02-06 08:35:00,
2013-02-06 03:40:00,23.2,20.7,29.86,NW,307,0.0,0.0,90,0.00,,OVC021,0.00,0.00,VWS V14.01,2013-02-06 08:40:00,
2013-02-06 03:45:00,23.1,20.6,29.86,NW,307,0.0,0.0,90,0.00,,OVC021,0.00,0.00,VWS V14.01,2013-02-06 08:45:00,
2013-02-06 03:50:00,23.1,20.6,29.86,NW,307,0.0,0.0,90,0.00,,OVC021,0.00,0.00,VWS V14.01,2013-02-06 08:50:00,
2013-02-06 03:55:00,23.0,20.5,29.86,NW,307,0.0,0.0,90,0.00,,OVC021,0.00,0.00,VWS V14.01,2013-02-06 08:55:00,
2013-02-06 04:00:00,23.0,20.5,29.86,NW,307,0.0,0.0,90,0.00,,OVC021,0.00,0.00,VWS V14.01,2013-02-06 09:00:00,
2013-02-06 04:05:00,22.9,20.4,29.86,NW,307,0.0,0.0,90,0.00,,OVC021,0.00,0.00,VWS V14.01,2013-02-06 09:05:00,
2013-02-06 04:10:00,22.8,20.3,29.86,NW,307,0.0,0.0,90,0.00,,OVC021,0.00,0.00,VWS V14.01,2013-02-06 09:10:00,
2013-02-06 04:15:00,22.8,20.3,29.86,NW,308,0.0,1.0,90,0.00,,OVC021,0.00,0.00,VWS V14.01,2013-02-06 09:15:00,
2013-02-06 04:20:00,22.8,20.6,29.87,NW,307,1.0,3.0,91,0.00,,OVC021,0.00,0.00,VWS V14.01,2013-02-06 09:20:00,
2013-02-06 04:25:00,22.8,20.3,29.86,NW,307,0.0,2.0,90,0.00,,OVC021,0.00,0.00,VWS V14.01,2013-02-06 09:25:00,
2013-02-06 04:30:00,22.8,20.6,29.87,NW,307,0.0,2.0,91,0.00,,OVC021,0.00,0.00,VWS V14.01,2013-02-06 09:30:00,
2013-02-06 04:35:00,22.8,20.6,29.87,NW,307,0.0,2.0,91,0.00,,OVC021,0.00,0.00,VWS V14.01,2013-02-06 09:35:00,
2013-02-06 04:40:00,22.9,20.7,29.87,NW,307,0.0,2.0,91,0.00,,OVC021,0.00,0.00,VWS V14.01,2013-02-06 09:40:00,
2013-02-06 04:45:00,22.9,20.7,29.87,NW,308,0.0,1.0,91,0.00,,OVC021,0.00,0.00,VWS V14.01,2013-02-06 09:45:00,
2013-02-06 04:50:00,22.9,20.7,29.87,NW,306,0.0,0.0,91,0.00,,OVC021,0.00,0.00,VWS V14.01,2013-02-06 09:50:00,
2013-02-06 04:55:00,22.9,20.7,29.87,NW,308,0.0,0.0,91,0.00,,OVC021,0.00,0.00,VWS V14.01,2013-02-06 09:55:00,
2013-02-06 05:00:00,22.9,20.7,29.87,NW,306,1.0,2.0,91,0.00,,OVC021,0.00,0.00,VWS V14.01,2013-02-06 10:00:00,
2013-02-06 05:05:00,22.9,20.7,29.88,NW,308,0.0,1.0,91,0.00,,OVC021,0.00,0.00,VWS V14.01,2013-02-06 10:05:00,
2013-02-06 05:10:00,22.9,20.7,29.88,NW,308,1.0,2.0,91,0.00,,OVC021,0.00,0.00,VWS V14.01,2013-02-06 10:10:00,
2013-02-06 05:15:00,22.9,20.7,29.88,NW,307,1.0,3.0,91,0.00,,OVC021,0.00,0.00,VWS V14.01,2013-02-06 10:15:00,
2013-02-06 05:20:00,23.0,20.8,29.88,NW,308,0.0,3.0,91,0.00,,OVC021,0.00,0.00,VWS V14.01,2013-02-06 10:20:00,
2013-02-06 05:25:00,23.0,20.8,29.88,NW,307,1.0,2.0,91,0.00,,OVC021,0.00,0.00,VWS V14.01,2013-02-06 10:25:00,
2013-02-06 05:30:00,23.0,20.8,29.88,NW,307,2.0,3.0,91,0.00,,OVC021,0.00,0.00,VWS V14.01,2013-02-06 10:30:00,
2013-02-06 05:35:00,23.0,20.8,29.88,NW,307,1.0,2.0,91,0.00,,OVC021,0.00,0.00,VWS V14.01,2013-02-06 10:35:00,
2013-02-06 05:40:00,23.0,20.8,29.89,NW,306,0.0,2.0,91,0.00,,OVC021,0.00,0.00,VWS V14.01,2013-02-06 10:40:00,
2013-02-06 05:45:00,23.0,20.8,29.89,NW,307,0.0,0.0,91,0.00,,OVC021,0.00,0.00,VWS V14.01,2013-02-06 10:45:00,
2013-02-06 05:50:00,23.0,20.8,29.89,NW,308,0.0,2.0,91,0.00,,OVC021,0.00,0.00,VWS V14.01,2013-02-06 10:50:00,
2013-02-06 05:55:00,23.0,20.8,29.89,NW,307,0.0,2.0,91,0.00,,OVC021,0.00,0.00,VWS V14.01,2013-02-06 10:55:00,
2013-02-06 06:00:00,23.0,20.8,29.89,NW,307,0.0,1.0,91,0.00,,OVC021,0.00,0.00,VWS V14.01,2013-02-06 11:00:00,
2013-02-06 06:05:00,23.0,20.8,29.89,NW,306,2.0,4.0,91,0.00,,OVC021,0.00,0.00,VWS V14.01,2013-02-06 11:05:00,
2013-02-06 06:06:00,23.0,20.8,29.89,NW,306,2.0,4.0,91,0.00,,OVC021,0.00,0.00,VWS V14.01,2013-02-06 11:06:00,
2013-02-06 06:07:00,23.0,20.8,29.89,NW,306,1.0,4.0,91,0.00,,OVC021,0.00,0.00,VWS V14.01,2013-02-06 11:07:00,
2013-02-06 06:10:00,23.0,20.8,29.89,NW,306,0.0,4.0,91,0.00,,OVC021,0.00,0.00,VWS V14.01,2013-02-06 11:10:00,
2013-02-06 06:12:00,23.0,20.5,29.89,NW,306,3.0,3.0,90,0.00,,OVC021,0.00,0.00,VWS V14.01,2013-02-06 11:12:00,
2013-02-06 06:15:00,23.0,20.5,29.89,NW,306,1.0,3.0,90,0.00,,OVC021,0.00,0.00,VWS V14.01,2013-02-06 11:15:00,
2013-02-06 06:17:00,22.9,20.4,29.90,NW,306,1.0,3.0,90,0.00,,OVC021,0.00,0.00,VWS V14.01,2013-02-06 11:17:00,
2013-02-06 06:20:00,22.9,20.4,29.90,NW,306,2.0,3.0,90,0.00,,OVC021,0.00,0.00,VWS V14.01,2013-02-06 11:20:00,
2013-02-06 06:22:00,22.9,20.7,29.90,NW,306,2.0,4.0,91,0.00,,OVC021,0.00,0.00,VWS V14.01,2013-02-06 11:22:00,
2013-02-06 06:25:00,22.9,20.7,29.90,NW,306,1.0,4.0,91,0.00,,OVC021,0.00,0.00,VWS V14.01,2013-02-06 11:25:00,
2013-02-06 06:27:00,22.8,20.3,29.90,NW,306,2.0,3.0,90,0.00,,OVC021,0.00,0.00,VWS V14.01,2013-02-06 11:27:00,
2013-02-06 06:30:00,22.8,20.3,29.90,NW,306,2.0,3.0,90,0.00,,OVC021,0.00,0.00,VWS V14.01,2013-02-06 11:30:00,
2013-02-06 06:33:00,22.8,20.3,29.90,NW,307,2.0,3.0,90,0.00,,OVC021,0.00,0.00,VWS V14.01,2013-02-06 11:33:00,
2013-02-06 06:35:00,22.8,20.3,29.90,NW,306,2.0,3.0,90,0.00,,OVC021,0.00,0.00,VWS V14.01,2013-02-06 11:35:00,
2013-02-06 06:38:00,22.7,20.2,29.90,NW,306,2.0,3.0,90,0.00,,OVC021,0.00,0.00,VWS V14.01,2013-02-06 11:38:00,
2013-02-06 06:40:00,22.7,20.2,29.90,NW,306,2.0,3.0,90,0.00,,OVC021,0.00,0.00,VWS V14.01,2013-02-06 11:40:00,
2013-02-06 06:43:00,22.7,20.2,29.91,NW,306,2.0,3.0,90,0.00,,OVC021,0.00,0.00,VWS V14.01,2013-02-06 11:43:00,
2013-02-06 06:45:00,22.7,20.2,29.91,NW,306,2.0,3.0,90,0.00,,OVC021,0.00,0.00,VWS V14.01,2013-02-06 11:45:00,
2013-02-06 06:48:00,22.7,20.5,29.91,NW,306,0.0,2.0,91,0.00,,OVC021,0.00,0.00,VWS V14.01,2013-02-06 11:48:00,
2013-02-06 06:50:00,22.7,20.5,29.91,NW,306,0.0,2.0,91,0.00,,OVC021,0.00,0.00,VWS V14.01,2013-02-06 11:50:00,
2013-02-06 06:53:00,22.8,20.6,29.91,NW,306,0.0,2.0,91,0.00,,OVC021,0.00,0.00,VWS V14.01,2013-02-06 11:53:00,
2013-02-06 06:55:00,22.8,20.6,29.91,NW,306,0.0,2.0,91,0.00,,OVC021,0.00,0.00,VWS V14.01,2013-02-06 11:55:00,
2013-02-06 06:58:00,22.8,20.3,29.91,NW,306,0.0,1.0,90,0.00,,OVC021,0.00,0.00,VWS V14.01,2013-02-06 11:58:00,
2013-02-06 07:00:00,22.8,20.3,29.91,NW,306,0.0,1.0,90,0.00,,OVC021,0.00,0.00,VWS V14.01,2013-02-06 12:00:00,
2013-02-06 07:03:00,22.7,20.2,29.91,NW,306,0.0,0.0,90,0.00,,OVC021,0.00,0.00,VWS V14.01,2013-02-06 12:03:00,
2013-02-06 07:05:00,22.7,20.2,29.91,NW,306,0.0,0.0,90,0.00,,OVC021,0.00,0.00,VWS V14.01,2013-02-06 12:05:00,
2013-02-06 07:08:00,22.7,20.2,29.91,NW,306,0.0,0.0,90,0.00,,OVC021,0.00,5.00,VWS V14.01,2013-02-06 12:08:00,
2013-02-06 07:10:00,22.7,20.2,29.91,NW,306,0.0,2.0,90,0.00,,OVC021,0.00,5.00,VWS V14.01,2013-02-06 12:10:00,
2013-02-06 07:13:00,22.6,20.1,29.91,NW,306,1.0,1.0,90,0.00,,OVC021,0.00,7.00,VWS V14.01,2013-02-06 12:13:00,
2013-02-06 07:15:00,22.6,20.1,29.91,NW,306,0.0,2.0,90,0.00,,OVC021,0.00,7.00,VWS V14.01,2013-02-06 12:15:00,
2013-02-06 07:18:00,22.6,20.1,29.91,NW,306,0.0,0.0,90,0.00,,OVC021,0.00,11.00,VWS V14.01,2013-02-06 12:18:00,
2013-02-06 07:20:00,22.6,20.1,29.91,NW,306,0.0,1.0,90,0.00,,OVC021,0.00,11.00,VWS V14.01,2013-02-06 12:20:00,
2013-02-06 07:23:00,22.5,20.0,29.91,NW,306,0.0,0.0,90,0.00,,OVC021,0.00,16.00,VWS V14.01,2013-02-06 12:23:00,
2013-02-06 07:25:00,22.5,20.0,29.91,NW,306,0.0,1.0,90,0.00,,OVC021,0.00,16.00,VWS V14.01,2013-02-06 12:25:00,
2013-02-06 07:29:00,22.3,19.8,29.92,NW,307,0.0,1.0,90,0.00,,OVC021,0.00,23.00,VWS V14.01,2013-02-06 12:29:00,
2013-02-06 07:30:00,22.4,19.9,29.91,NW,306,0.0,1.0,90,0.00,,OVC021,0.00,21.00,VWS V14.01,2013-02-06 12:30:00,
2013-02-06 07:34:00,22.2,19.7,29.92,NW,306,1.0,1.0,90,0.00,,OVC021,0.00,25.00,VWS V14.01,2013-02-06 12:34:00,
2013-02-06 07:35:00,22.2,19.7,29.92,NW,306,0.0,1.0,90,0.00,,OVC021,0.00,26.00,VWS V14.01,2013-02-06 12:35:00,
2013-02-06 07:39:00,22.3,19.8,29.92,NW,306,1.0,2.0,90,0.00,,OVC021,0.00,30.00,VWS V14.01,2013-02-06 12:39:00,
2013-02-06 07:40:00,22.2,19.7,29.92,NW,306,1.0,2.0,90,0.00,,OVC021,0.00,32.00,VWS V14.01,2013-02-06 12:40:00,
2013-02-06 07:44:00,22.4,19.9,29.92,NW,306,0.0,0.0,90,0.00,,OVC021,0.00,53.00,VWS V14.01,2013-02-06 12:44:00,
2013-02-06 07:45:00,22.4,19.9,29.92,NW,306,0.0,2.0,90,0.00,,OVC021,0.00,47.00,VWS V14.01,2013-02-06 12:45:00,
2013-02-06 07:49:00,22.5,20.0,29.92,NW,306,0.0,0.0,90,0.00,,OVC021,0.00,51.00,VWS V14.01,2013-02-06 12:49:00,
2013-02-06 07:50:00,22.5,20.0,29.92,NW,306,0.0,1.0,90,0.00,,OVC021,0.00,69.00,VWS V14.01,2013-02-06 12:50:00,
2013-02-06 07:54:00,22.6,20.1,29.92,NW,306,0.0,3.0,90,0.00,,OVC021,0.00,95.00,VWS V14.01,2013-02-06 12:54:00,
2013-02-06 07:55:00,22.5,20.0,29.92,NW,306,2.0,3.0,90,0.00,,OVC021,0.00,91.00,VWS V14.01,2013-02-06 12:55:00,
2013-02-06 07:59:00,22.8,20.3,29.92,NW,306,2.0,2.0,90,0.00,,OVC021,0.00,118.00,VWS V14.01,2013-02-06 12:59:00,
2013-02-06 08:00:00,22.8,20.3,29.92,NW,306,2.0,4.0,90,0.00,,OVC021,0.00,113.00,VWS V14.01,2013-02-06 13:00:00,
2013-02-06 08:04:00,23.1,20.6,29.92,NW,306,2.0,2.0,90,0.00,,OVC021,0.00,169.00,VWS V14.01,2013-02-06 13:04:00,
2013-02-06 08:05:00,23.0,20.5,29.92,NW,306,1.0,3.0,90,0.00,,OVC021,0.00,148.00,VWS V14.01,2013-02-06 13:05:00,
2013-02-06 08:09:00,23.4,20.9,29.92,NW,306,2.0,3.0,90,0.00,,OVC021,0.00,220.00,VWS V14.01,2013-02-06 13:09:00,
2013-02-06 08:10:00,23.4,20.9,29.92,NW,306,2.0,3.0,90,0.00,,OVC021,0.00,216.00,VWS V14.01,2013-02-06 13:10:00,
2013-02-06 08:14:00,23.7,20.9,29.93,NW,306,0.0,1.0,89,0.00,,OVC021,0.00,246.00,VWS V14.01,2013-02-06 13:14:00,
2013-02-06 08:15:00,23.7,20.9,29.93,NW,306,0.0,3.0,89,0.00,,OVC021,0.00,244.00,VWS V14.01,2013-02-06 13:15:00,
2013-02-06 08:19:00,24.0,21.2,29.93,NW,306,1.0,1.0,89,0.00,,OVC021,0.00,272.00,VWS V14.01,2013-02-06 13:19:00,
2013-02-06 08:20:00,24.0,21.2,29.93,NW,306,0.0,1.0,89,0.00,,OVC021,0.00,271.00,VWS V14.01,2013-02-06 13:20:00,
2013-02-06 08:24:00,24.5,21.5,29.93,NW,306,0.0,2.0,88,0.00,,OVC021,0.00,255.00,VWS V14.01,2013-02-06 13:24:00,
2013-02-06 08:25:00,24.4,21.6,29.93,NW,306,0.0,2.0,89,0.00,,OVC021,0.00,255.00,VWS V14.01,2013-02-06 13:25:00,
2013-02-06 08:29:00,24.9,21.9,29.93,NW,306,2.0,3.0,88,0.00,,OVC021,0.00,272.00,VWS V14.01,2013-02-06 13:29:00,
2013-02-06 08:30:00,24.8,21.8,29.93,NW,306,2.0,3.0,88,0.00,,OVC021,0.00,272.00,VWS V14.01,2013-02-06 13:30:00,
2013-02-06 08:34:00,25.2,21.9,29.93,NW,304,2.0,3.0,87,0.00,,OVC021,0.00,209.00,VWS V14.01,2013-02-06 13:34:00,
2013-02-06 08:35:00,25.2,21.9,29.93,NW,304,2.0,3.0,87,0.00,,OVC021,0.00,216.00,VWS V14.01,2013-02-06 13:35:00,
2013-02-06 08:39:00,25.2,21.6,29.93,NW,304,1.0,4.0,86,0.00,,OVC021,0.00,171.00,VWS V14.01,2013-02-06 13:39:00,
2013-02-06 08:40:00,25.2,21.6,29.93,NW,305,4.0,5.0,86,0.00,,OVC021,0.00,181.00,VWS V14.01,2013-02-06 13:40:00,
2013-02-06 08:45:00,25.3,21.7,29.93,NW,304,2.0,4.0,86,0.00,,OVC021,0.00,167.00,VWS V14.01,2013-02-06 13:45:00,
2013-02-06 08:50:00,25.5,21.9,29.93,NW,304,0.0,3.0,86,0.00,,OVC021,0.00,290.00,VWS V14.01,2013-02-06 13:50:00,
2013-02-06 08:55:00,25.8,21.9,29.93,WNW,303,3.0,4.0,85,0.00,,OVC021,0.00,322.00,VWS V14.01,2013-02-06 13:55:00,
2013-02-06 09:00:00,26.1,22.2,29.93,WSW,250,4.0,5.0,85,0.00,,OVC021,0.00,381.00,VWS V14.01,2013-02-06 14:00:00,
2013-02-06 09:05:00,26.5,22.6,29.93,WSW,253,6.0,7.0,85,0.00,,OVC021,0.00,336.00,VWS V14.01,2013-02-06 14:05:00,
2013-02-06 09:10:00,26.7,24.4,29.93,WSW,254,3.0,7.0,91,0.00,,OVC021,0.00,304.00,VWS V14.01,2013-02-06 14:10:00,
2013-02-06 09:15:00,27.1,23.2,29.93,West,263,7.0,9.0,85,0.00,,OVC021,0.00,334.00,VWS V14.01,2013-02-06 14:15:00,
2013-02-06 09:20:00,27.3,22.8,29.93,West,273,5.0,8.0,83,0.00,,OVC021,0.00,348.00,VWS V14.01,2013-02-06 14:20:00,
2013-02-06 09:25:00,27.5,23.3,29.93,SW,231,4.0,6.0,84,0.00,,OVC021,0.00,287.00,VWS V14.01,2013-02-06 14:25:00,
2013-02-06 09:30:00,27.9,23.7,29.93,West,262,4.0,5.0,84,0.01,,OVC021,0.01,243.00,VWS V14.01,2013-02-06 14:30:00,
2013-02-06 09:35:00,28.2,23.7,29.93,West,261,7.0,8.0,83,0.01,,OVC021,0.01,274.00,VWS V14.01,2013-02-06 14:35:00,
2013-02-06 09:40:00,28.4,23.9,29.93,West,272,4.0,6.0,83,0.01,,OVC021,0.01,255.00,VWS V14.01,2013-02-06 14:40:00,
2013-02-06 09:45:00,28.6,24.1,29.93,West,265,4.0,7.0,83,0.01,,OVC021,0.01,246.00,VWS V14.01,2013-02-06 14:45:00,
2013-02-06 09:46:00,28.7,23.9,29.93,West,272,7.0,9.0,82,0.01,,OVC021,0.01,287.00,VWS V14.01,2013-02-06 14:46:00,
2013-02-06 09:50:00,28.7,23.6,29.93,WSW,257,5.0,9.0,81,0.01,,OVC021,0.01,374.00,VWS V14.01,2013-02-06 14:50:00,
2013-02-06 09:51:00,28.9,23.8,29.93,West,278,6.0,10.0,81,0.01,,OVC021,0.01,404.00,VWS V14.01,2013-02-06 14:51:00,
2013-02-06 09:55:00,29.0,23.9,29.93,West,265,8.0,10.0,81,0.01,,OVC021,0.01,353.00,VWS V14.01,2013-02-06 14:55:00,
2013-02-06 09:56:00,29.1,24.0,29.93,WNW,297,3.0,8.0,81,0.01,,OVC021,0.01,327.00,VWS V14.01,2013-02-06 14:56:00,
2013-02-06 10:00:00,29.3,23.9,29.93,West,267,6.0,8.0,80,0.01,,OVC021,0.01,301.00,VWS V14.01,2013-02-06 15:00:00,
2013-02-06 10:01:00,29.6,24.2,29.93,WNW,303,4.0,6.0,80,0.01,,OVC021,0.01,527.00,VWS V14.01,2013-02-06 15:01:00,
2013-02-06 10:05:00,29.8,24.4,29.93,West,266,4.0,8.0,80,0.01,,OVC021,0.01,468.00,VWS V14.01,2013-02-06 15:05:00,
2013-02-06 10:06:00,30.0,24.3,29.93,SSW,207,7.0,9.0,79,0.01,,OVC021,0.01,362.00,VWS V14.01,2013-02-06 15:06:00,
2013-02-06 10:10:00,30.3,24.6,29.93,West,268,7.0,9.0,79,0.01,,OVC021,0.01,417.00,VWS V14.01,2013-02-06 15:10:00,
2013-02-06 10:11:00,30.4,24.4,29.94,West,260,7.0,9.0,78,0.01,,OVC021,0.01,499.00,VWS V14.01,2013-02-06 15:11:00,
2013-02-06 10:15:00,30.5,24.2,29.93,West,263,4.0,10.0,77,0.01,,OVC021,0.01,376.00,VWS V14.01,2013-02-06 15:15:00,
2013-02-06 10:16:00,30.6,24.0,29.93,WSW,251,7.0,9.0,76,0.01,,OVC021,0.01,475.00,VWS V14.01,2013-02-06 15:16:00,
2013-02-06 10:20:00,30.6,24.0,29.93,West,267,4.0,9.0,76,0.01,,OVC021,0.01,527.00,VWS V14.01,2013-02-06 15:20:00,
2013-02-06 10:21:00,30.7,24.4,29.93,WSW,239,2.0,7.0,77,0.01,,OVC021,0.01,367.00,VWS V14.01,2013-02-06 15:21:00,
2013-02-06 10:25:00,30.9,24.2,29.92,WSW,242,2.0,7.0,76,0.01,,OVC021,0.01,476.00,VWS V14.01,2013-02-06 15:25:00,
2013-02-06 10:26:00,31.1,24.1,29.92,NW,318,0.0,5.0,75,0.02,,OVC021,0.02,473.00,VWS V14.01,2013-02-06 15:26:00,
2013-02-06 10:30:00,31.2,24.2,29.92,WSW,247,6.0,7.0,75,0.02,,OVC021,0.02,480.00,VWS V14.01,2013-02-06 15:30:00,
2013-02-06 10:31:00,31.4,24.1,29.92,West,259,8.0,8.0,74,0.01,,OVC021,0.02,485.00,VWS V14.01,2013-02-06 15:31:00,
2013-02-06 10:35:00,31.5,23.9,29.92,WSW,243,4.0,8.0,73,0.01,,OVC021,0.02,497.00,VWS V14.01,2013-02-06 15:35:00,
2013-02-06 10:36:00,31.7,23.4,29.92,West,262,3.0,7.0,71,0.01,,OVC021,0.02,501.00,VWS V14.01,2013-02-06 15:36:00,
2013-02-06 10:40:00,31.9,24.2,29.92,WSW,250,9.0,10.0,73,0.01,,OVC021,0.02,497.00,VWS V14.01,2013-02-06 15:40:00,
2013-02-06 10:42:00,32.0,23.3,29.92,WNW,292,4.0,9.0,70,0.01,,OVC021,0.02,510.00,VWS V14.01,2013-02-06 15:42:00,
2013-02-06 10:45:00,32.1,23.8,29.92,WSW,253,3.0,9.0,71,0.01,,OVC021,0.02,510.00,VWS V14.01,2013-02-06 15:45:00,
2013-02-06 10:47:00,32.4,23.4,29.92,NNW,331,6.0,9.0,69,0.01,,OVC021,0.02,508.00,VWS V14.01,2013-02-06 15:47:00,
2013-02-06 10:50:00,32.5,23.8,29.92,WNW,288,3.0,9.0,70,0.01,,OVC021,0.02,503.00,VWS V14.01,2013-02-06 15:50:00,
2013-02-06 10:52:00,32.7,23.3,29.92,WSW,250,3.0,6.0,68,0.01,,OVC021,0.02,508.00,VWS V14.01,2013-02-06 15:52:00,
2013-02-06 10:55:00,32.8,23.4,29.92,West,265,5.0,6.0,68,0.01,,OVC021,0.02,510.00,VWS V14.01,2013-02-06 15:55:00,
2013-02-06 10:57:00,33.0,22.2,29.93,WSW,251,8.0,12.0,64,0.01,,OVC021,0.02,520.00,VWS V14.01,2013-02-06 15:57:00,
2013-02-06 11:00:00,33.0,21.8,29.93,West,264,8.0,12.0,63,0.01,,OVC021,0.02,517.00,VWS V14.01,2013-02-06 16:00:00,
2013-02-06 11:02:00,33.0,21.8,29.93,West,279,7.0,16.0,63,0.01,,OVC021,0.02,522.00,VWS V14.01,2013-02-06 16:02:00,
2013-02-06 11:05:00,33.0,21.4,29.92,West,275,5.0,16.0,62,0.01,,OVC021,0.02,522.00,VWS V14.01,2013-02-06 16:05:00,
2013-02-06 11:07:00,33.0,22.2,29.92,WNW,284,8.0,13.0,64,0.01,,OVC021,0.02,520.00,VWS V14.01,2013-02-06 16:07:00,
2013-02-06 11:10:00,33.0,21.4,29.92,West,281,6.0,13.0,62,0.01,,OVC021,0.02,522.00,VWS V14.01,2013-02-06 16:10:00,
2013-02-06 11:12:00,33.3,22.5,29.92,West,273,6.0,11.0,64,0.01,,OVC021,0.02,522.00,VWS V14.01,2013-02-06 16:12:00,
2013-02-06 11:15:00,33.3,22.1,29.92,West,266,11.0,13.0,63,0.01,,OVC021,0.02,529.00,VWS V14.01,2013-02-06 16:15:00,
2013-02-06 11:17:00,33.6,22.0,29.92,West,264,13.0,16.0,62,0.01,,OVC021,0.02,543.00,VWS V14.01,2013-02-06 16:17:00,
2013-02-06 11:20:00,33.6,22.0,29.92,NW,326,5.0,16.0,62,0.01,,OVC021,0.02,548.00,VWS V14.01,2013-02-06 16:20:00,
2013-02-06 11:22:00,33.6,21.6,29.93,West,275,12.0,14.0,61,0.01,,OVC021,0.02,601.00,VWS V14.01,2013-02-06 16:22:00,
2013-02-06 11:25:00,33.6,22.0,29.93,West,267,8.0,14.0,62,0.01,,OVC021,0.02,606.00,VWS V14.01,2013-02-06 16:25:00,
2013-02-06 11:27:00,34.1,23.2,29.92,West,271,6.0,13.0,64,0.01,,OVC021,0.02,580.00,VWS V14.01,2013-02-06 16:27:00,
2013-02-06 11:30:00,34.2,22.9,29.92,NW,309,8.0,13.0,63,0.01,,OVC021,0.02,580.00,VWS V14.01,2013-02-06 16:30:00,
2013-02-06 11:32:00,34.6,22.5,29.92,SW,227,11.0,14.0,61,0.00,,OVC021,0.02,524.00,VWS V14.01,2013-02-06 16:32:00,
2013-02-06 11:35:00,34.7,23.4,29.92,WSW,254,13.0,14.0,63,0.00,,OVC021,0.02,524.00,VWS V14.01,2013-02-06 16:35:00,
2013-02-06 11:37:00,34.7,22.6,29.92,WSW,240,5.0,13.0,61,0.00,,OVC021,0.02,262.00,VWS V14.01,2013-02-06 16:37:00,
2013-02-06 11:40:00,34.8,23.1,29.92,WNW,290,3.0,13.0,62,0.00,,OVC021,0.02,285.00,VWS V14.01,2013-02-06 16:40:00,
2013-02-06 11:43:00,34.8,22.3,29.92,NW,314,19.0,19.0,60,0.00,,OVC021,0.02,260.00,VWS V14.01,2013-02-06 16:43:00,
2013-02-06 11:45:00,34.7,22.2,29.92,WNW,301,15.0,19.0,60,0.00,,OVC021,0.02,274.00,VWS V14.01,2013-02-06 16:45:00,
2013-02-06 11:48:00,34.7,22.2,29.92,WSW,249,5.0,16.0,60,0.00,,OVC021,0.02,575.00,VWS V14.01,2013-02-06 16:48:00,
2013-02-06 11:50:00,34.7,22.2,29.92,NW,306,6.0,16.0,60,0.00,,OVC021,0.02,575.00,VWS V14.01,2013-02-06 16:50:00,
2013-02-06 11:53:00,34.7,21.9,29.92,WNW,285,9.0,12.0,59,0.00,,OVC021,0.02,128.00,VWS V14.01,2013-02-06 16:53:00,
2013-02-06 11:55:00,34.7,21.9,29.92,WNW,298,8.0,12.0,59,0.00,,OVC021,0.02,128.00,VWS V14.01,2013-02-06 16:55:00,
2013-02-06 11:58:00,34.4,21.2,29.91,West,279,7.0,16.0,58,0.00,,OVC021,0.02,534.00,VWS V14.01,2013-02-06 16:58:00,
2013-02-06 12:00:00,34.4,21.2,29.91,West,279,7.0,16.0,58,0.00,,OVC021,0.02,534.00,VWS V14.01,2013-02-06 17:00:00,
2013-02-06 12:03:00,34.7,21.5,29.91,West,279,8.0,16.0,58,0.00,,OVC021,0.02,552.00,VWS V14.01,2013-02-06 17:03:00,
2013-02-06 12:05:00,34.7,21.5,29.91,West,279,8.0,16.0,58,0.00,,OVC021,0.02,552.00,VWS V14.01,2013-02-06 17:05:00,
2013-02-06 12:08:00,35.1,21.4,29.91,West,271,7.0,16.0,57,0.00,,OVC021,0.02,91.00,VWS V14.01,2013-02-06 17:08:00,
2013-02-06 12:10:00,35.1,21.4,29.91,West,271,7.0,16.0,57,0.00,,OVC021,0.02,91.00,VWS V14.01,2013-02-06 17:10:00,
2013-02-06 12:13:00,35.0,21.7,29.91,West,259,7.0,19.0,58,0.00,,OVC021,0.02,568.00,VWS V14.01,2013-02-06 17:13:00,
2013-02-06 12:15:00,35.0,21.7,29.91,West,259,7.0,19.0,58,0.00,,OVC021,0.02,568.00,VWS V14.01,2013-02-06 17:15:00,
2013-02-06 12:18:00,35.6,21.9,29.91,WNW,288,8.0,16.0,57,0.00,,OVC021,0.02,610.00,VWS V14.01,2013-02-06 17:18:00,
2013-02-06 12:20:00,35.6,21.9,29.91,WNW,288,8.0,16.0,57,0.00,,OVC021,0.02,610.00,VWS V14.01,2013-02-06 17:20:00,
2013-02-06 12:23:00,35.6,21.9,29.91,West,279,9.0,16.0,57,0.00,,OVC021,0.02,598.00,VWS V14.01,2013-02-06 17:23:00,
2013-02-06 12:25:00,35.6,21.9,29.91,West,279,9.0,16.0,57,0.00,,OVC021,0.02,598.00,VWS V14.01,2013-02-06 17:25:00,
2013-02-06 12:28:00,35.8,21.6,29.91,West,275,11.0,12.0,56,0.00,,OVC021,0.02,650.00,VWS V14.01,2013-02-06 17:28:00,
2013-02-06 12:30:00,35.8,21.6,29.91,West,279,12.0,14.0,56,0.00,,OVC021,0.02,650.00,VWS V14.01,2013-02-06 17:30:00,
2013-02-06 12:33:00,35.6,20.6,29.91,West,269,6.0,17.0,54,0.00,,OVC021,0.02,568.00,VWS V14.01,2013-02-06 17:33:00,
2013-02-06 12:35:00,35.6,20.6,29.91,West,269,6.0,17.0,54,0.00,,OVC021,0.02,568.00,VWS V14.01,2013-02-06 17:35:00,
2013-02-06 12:38:00,36.2,21.6,29.90,NW,309,12.0,12.0,55,0.00,,OVC021,0.02,550.00,VWS V14.01,2013-02-06 17:38:00,
2013-02-06 12:40:00,36.2,21.6,29.91,NNW,329,10.0,17.0,55,0.00,,OVC021,0.02,566.00,VWS V14.01,2013-02-06 17:40:00,
2013-02-06 12:43:00,36.2,21.2,29.91,West,271,11.0,13.0,54,0.00,,OVC021,0.02,439.00,VWS V14.01,2013-02-06 17:43:00,
2013-02-06 12:45:00,36.2,21.2,29.91,WSW,242,13.0,15.0,54,0.00,,OVC021,0.02,439.00,VWS V14.01,2013-02-06 17:45:00,
2013-02-06 12:48:00,36.7,20.8,29.91,WNW,289,11.0,14.0,52,0.00,,OVC021,0.02,218.00,VWS V14.01,2013-02-06 17:48:00,
2013-02-06 12:50:00,36.7,21.2,29.91,West,265,14.0,17.0,53,0.00,,OVC021,0.02,218.00,VWS V14.01,2013-02-06 17:50:00,
2013-02-06 12:53:00,35.4,19.5,29.91,West,278,13.0,16.0,52,0.00,,OVC021,0.02,134.00,VWS V14.01,2013-02-06 17:53:00,
2013-02-06 12:55:00,35.5,19.6,29.91,WNW,288,11.0,21.0,52,0.00,,OVC021,0.02,134.00,VWS V14.01,2013-02-06 17:55:00,
2013-02-06 12:58:00,35.7,20.3,29.91,NW,313,9.0,9.0,53,0.00,,OVC021,0.02,160.00,VWS V14.01,2013-02-06 17:58:00,
2013-02-06 13:00:00,35.7,20.3,29.91,NNW,331,8.0,18.0,53,0.00,,OVC021,0.02,160.00,VWS V14.01,2013-02-06 18:00:00,
2013-02-06 13:04:00,36.3,19.9,29.91,WNW,298,8.0,17.0,51,0.00,,OVC021,0.02,204.00,VWS V14.01,2013-02-06 18:04:00,
2013-02-06 13:05:00,36.3,20.8,29.90,West,275,17.0,21.0,53,0.00,,OVC021,0.02,204.00,VWS V14.01,2013-02-06 18:05:00,
2013-02-06 13:09:00,36.5,20.1,29.91,West,260,12.0,15.0,51,0.00,,OVC021,0.02,156.00,VWS V14.01,2013-02-06 18:09:00,
2013-02-06 13:10:00,36.4,20.0,29.91,WSW,255,13.0,20.0,51,0.00,,OVC021,0.02,158.00,VWS V14.01,2013-02-06 18:10:00,
2013-02-06 13:14:00,36.5,19.6,29.92,West,279,19.0,20.0,50,0.00,,OVC021,0.02,179.00,VWS V14.01,2013-02-06 18:14:00,
2013-02-06 13:15:00,36.5,19.6,29.91,West,262,12.0,20.0,50,0.00,,OVC021,0.02,174.00,VWS V14.01,2013-02-06 18:15:00,
2013-02-06 13:19:00,36.0,19.6,29.92,West,279,15.0,17.0,51,0.00,,OVC021,0.02,156.00,VWS V14.01,2013-02-06 18:19:00,
2013-02-06 13:20:00,36.0,19.6,29.91,West,269,11.0,23.0,51,0.00,,OVC021,0.02,144.00,VWS V14.01,2013-02-06 18:20:00,
2013-02-06 13:24:00,36.1,19.7,29.93,West,265,19.0,19.0,51,0.00,,OVC021,0.02,193.00,VWS V14.01,2013-02-06 18:24:00,
2013-02-06 13:25:00,36.1,19.7,29.92,WNW,302,10.0,18.0,51,0.00,,OVC021,0.02,190.00,VWS V14.01,2013-02-06 18:25:00,
2013-02-06 13:29:00,35.4,19.5,29.92,West,270,12.0,21.0,52,0.00,,OVC021,0.02,162.00,VWS V14.01,2013-02-06 18:29:00,
2013-02-06 13:30:00,35.5,19.6,29.92,NW,305,5.0,22.0,52,0.00,,OVC021,0.02,185.00,VWS V14.01,2013-02-06 18:30:00,
2013-02-06 13:34:00,35.2,19.8,29.93,WNW,292,2.0,13.0,53,0.00,,OVC021,0.02,155.00,VWS V14.01,2013-02-06 18:34:00,
2013-02-06 13:35:00,35.2,19.8,29.92,NW,315,13.0,21.0,53,0.00,,OVC021,0.02,162.00,VWS V14.01,2013-02-06 18:35:00,
2013-02-06 13:39:00,35.5,20.1,29.93,West,279,10.0,17.0,53,0.00,,OVC021,0.02,144.00,VWS V14.01,2013-02-06 18:39:00,
2013-02-06 13:40:00,35.6,20.2,29.93,WNW,299,15.0,21.0,53,0.00,,OVC021,0.02,137.00,VWS V14.01,2013-02-06 18:40:00,
2013-02-06 13:44:00,34.9,19.5,29.92,NW,311,3.0,15.0,53,0.00,,OVC021,0.02,111.00,VWS V14.01,2013-02-06 18:44:00,
2013-02-06 13:45:00,35.0,19.6,29.92,West,273,13.0,21.0,53,0.00,,OVC021,0.02,139.00,VWS V14.01,2013-02-06 18:45:00,
2013-02-06 13:49:00,34.8,19.9,29.92,WNW,296,8.0,23.0,54,0.00,,OVC021,0.02,88.00,VWS V14.01,2013-02-06 18:49:00,
2013-02-06 13:50:00,34.8,19.9,29.92,West,265,16.0,16.0,54,0.00,,OVC021,0.02,97.00,VWS V14.01,2013-02-06 18:50:00,
2013-02-06 13:55:00,34.5,19.1,29.93,West,275,6.0,16.0,53,0.00,,OVC021,0.02,97.00,VWS V14.01,2013-02-06 18:55:00,
2013-02-06 14:00:00,34.3,19.4,29.93,West,281,7.0,15.0,54,0.00,,OVC021,0.02,120.00,VWS V14.01,2013-02-06 19:00:00,
2013-02-06 14:05:00,34.4,19.9,29.93,West,270,5.0,12.0,55,0.00,,OVC021,0.02,95.00,VWS V14.01,2013-02-06 19:05:00,
2013-02-06 14:10:00,34.5,20.0,29.93,West,267,3.0,8.0,55,0.00,,OVC021,0.02,95.00,VWS V14.01,2013-02-06 19:10:00,
2013-02-06 14:15:00,35.0,20.5,29.93,West,281,8.0,10.0,55,0.00,,OVC021,0.02,111.00,VWS V14.01,2013-02-06 19:15:00,
2013-02-06 14:20:00,35.0,20.5,29.93,WSW,256,13.0,13.0,55,0.00,,OVC021,0.02,76.00,VWS V14.01,2013-02-06 19:20:00,
2013-02-06 14:25:00,35.0,20.0,29.93,WNW,301,17.0,17.0,54,0.00,,OVC021,0.02,91.00,VWS V14.01,2013-02-06 19:25:00,
2013-02-06 14:30:00,34.7,20.2,29.94,West,267,10.0,16.0,55,0.00,,OVC021,0.02,83.00,VWS V14.01,2013-02-06 19:30:00,
2013-02-06 14:35:00,34.3,19.8,29.94,NW,317,9.0,16.0,55,0.00,,OVC021,0.02,114.00,VWS V14.01,2013-02-06 19:35:00,
2013-02-06 14:40:00,34.4,20.3,29.94,WNW,298,2.0,7.0,56,0.00,,OVC021,0.02,65.00,VWS V14.01,2013-02-06 19:40:00,
2013-02-06 14:45:00,34.3,20.2,29.94,West,267,8.0,12.0,56,0.00,,OVC021,0.02,49.00,VWS V14.01,2013-02-06 19:45:00,
2013-02-06 14:50:00,34.3,20.2,29.94,West,270,8.0,15.0,56,0.00,,OVC021,0.02,86.00,VWS V14.01,2013-02-06 19:50:00,
2013-02-06 14:51:00,34.4,19.9,29.94,WSW,246,12.0,16.0,55,0.00,,OVC021,0.02,281.00,VWS V14.01,2013-02-06 19:51:00,
2013-02-06 14:55:00,34.7,20.2,29.94,West,273,12.0,18.0,55,0.00,,OVC021,0.02,283.00,VWS V14.01,2013-02-06 19:55:00,
2013-02-06 14:56:00,35.0,19.6,29.95,WNW,289,12.0,20.0,53,0.00,,OVC021,0.02,248.00,VWS V14.01,2013-02-06 19:56:00,
2013-02-06 15:00:00,35.1,19.7,29.95,West,261,11.0,21.0,53,0.00,,OVC021,0.02,255.00,VWS V14.01,2013-02-06 20:00:00,
2013-02-06 15:01:00,34.8,19.4,29.95,West,271,10.0,18.0,53,0.00,,OVC021,0.02,76.00,VWS V14.01,2013-02-06 20:01:00,
2013-02-06 15:05:00,34.6,19.7,29.95,NW,322,12.0,21.0,54,0.00,,OVC021,0.02,179.00,VWS V14.01,2013-02-06 20:05:00,
2013-02-06 15:06:00,34.6,19.7,29.95,WNW,282,12.0,14.0,54,0.00,,OVC021,0.02,199.00,VWS V14.01,2013-02-06 20:06:00,
2013-02-06 15:10:00,34.7,20.2,29.95,NW,305,12.0,16.0,55,0.00,,OVC021,0.02,197.00,VWS V14.01,2013-02-06 20:10:00,
2013-02-06 15:11:00,34.9,20.4,29.95,WNW,284,7.0,14.0,55,0.00,,OVC021,0.02,183.00,VWS V14.01,2013-02-06 20:11:00,
2013-02-06 15:15:00,35.0,20.9,29.95,WNW,287,9.0,14.0,56,0.00,,OVC021,0.02,178.00,VWS V14.01,2013-02-06 20:15:00,
2013-02-06 15:16:00,35.1,19.7,29.94,West,277,13.0,19.0,53,0.00,,OVC021,0.02,188.00,VWS V14.01,2013-02-06 20:16:00,
2013-02-06 15:20:00,35.0,20.0,29.95,West,271,12.0,19.0,54,0.00,,OVC021,0.02,192.00,VWS V14.01,2013-02-06 20:20:00,
2013-02-06 15:21:00,34.9,19.1,29.95,West,278,14.0,21.0,52,0.00,,OVC021,0.02,214.00,VWS V14.01,2013-02-06 20:21:00,
2013-02-06 15:25:00,34.8,19.0,29.95,West,273,11.0,21.0,52,0.00,,OVC021,0.02,218.00,VWS V14.01,2013-02-06 20:25:00,
2013-02-06 15:26:00,34.9,19.1,29.95,West,261,11.0,16.0,52,0.00,,OVC021,0.02,220.00,VWS V14.01,2013-02-06 20:26:00,
2013-02-06 15:30:00,35.0,19.2,29.95,WSW,250,17.0,17.0,52,0.00,,OVC021,0.02,220.00,VWS V14.01,2013-02-06 20:30:00,
2013-02-06 15:32:00,35.1,18.8,29.95,West,268,11.0,18.0,51,0.00,,OVC021,0.02,214.00,VWS V14.01,2013-02-06 20:32:00,
2013-02-06 15:35:00,35.1,18.8,29.95,WSW,250,14.0,18.0,51,0.00,,OVC021,0.02,209.00,VWS V14.01,2013-02-06 20:35:00,
2013-02-06 15:37:00,35.3,19.0,29.95,WNW,299,9.0,14.0,51,0.00,,OVC021,0.02,185.00,VWS V14.01,2013-02-06 20:37:00,
2013-02-06 15:40:00,35.3,18.5,29.95,West,278,6.0,14.0,50,0.00,,OVC021,0.02,142.00,VWS V14.01,2013-02-06 20:40:00,
2013-02-06 15:42:00,35.3,18.5,29.95,WNW,288,4.0,9.0,50,0.00,,OVC021,0.02,181.00,VWS V14.01,2013-02-06 20:42:00,
2013-02-06 15:45:00,35.4,19.1,29.96,WNW,294,5.0,9.0,51,0.00,,OVC021,0.02,179.00,VWS V14.01,2013-02-06 20:45:00,
2013-02-06 15:47:00,35.1,17.9,29.96,NW,309,4.0,18.0,49,0.00,,OVC021,0.02,160.00,VWS V14.01,2013-02-06 20:47:00,
2013-02-06 15:50:00,35.1,18.4,29.96,West,263,6.0,18.0,50,0.00,,OVC021,0.02,167.00,VWS V14.01,2013-02-06 20:50:00,
2013-02-06 15:52:00,35.1,17.9,29.96,WNW,301,9.0,16.0,49,0.00,,OVC021,0.02,139.00,VWS V14.01,2013-02-06 20:52:00,
2013-02-06 15:55:00,35.0,18.2,29.96,West,277,6.0,16.0,50,0.00,,OVC021,0.02,42.00,VWS V14.01,2013-02-06 20:55:00,
2013-02-06 15:57:00,34.9,18.2,29.97,NW,325,6.0,15.0,50,0.00,,OVC021,0.02,125.00,VWS V14.01,2013-02-06 20:57:00,
2013-02-06 16:00:00,34.9,17.7,29.97,West,280,12.0,18.0,49,0.00,,OVC021,0.02,120.00,VWS V14.01,2013-02-06 21:00:00,
2013-02-06 16:02:00,34.8,17.6,29.97,WNW,287,8.0,14.0,49,0.00,,OVC021,0.02,40.00,VWS V14.01,2013-02-06 21:02:00,
2013-02-06 16:05:00,34.8,17.6,29.97,West,267,15.0,16.0,49,0.00,,OVC021,0.02,104.00,VWS V14.01,2013-02-06 21:05:00,
2013-02-06 16:07:00,34.6,17.4,29.97,West,259,11.0,20.0,49,0.00,,OVC021,0.02,33.00,VWS V14.01,2013-02-06 21:07:00,
2013-02-06 16:10:00,34.4,17.2,29.97,WNW,292,9.0,20.0,49,0.00,,OVC021,0.02,32.00,VWS V14.01,2013-02-06 21:10:00,
2013-02-06 16:12:00,34.2,17.5,29.97,West,277,6.0,16.0,50,0.00,,OVC021,0.02,72.00,VWS V14.01,2013-02-06 21:12:00,
2013-02-06 16:15:00,34.2,17.5,29.97,West,279,5.0,16.0,50,0.00,,OVC021,0.02,70.00,VWS V14.01,2013-02-06 21:15:00,
2013-02-06 16:17:00,34.4,17.7,29.98,West,260,6.0,12.0,50,0.00,,OVC021,0.02,60.00,VWS V14.01,2013-02-06 21:17:00,
2013-02-06 16:20:00,34.5,17.8,29.98,WNW,297,5.0,12.0,50,0.00,,OVC021,0.02,58.00,VWS V14.01,2013-02-06 21:20:00,
2013-02-06 16:22:00,34.5,17.3,29.98,West,271,5.0,13.0,49,0.00,,OVC021,0.02,49.00,VWS V14.01,2013-02-06 21:22:00,
2013-02-06 16:25:00,34.5,17.3,29.98,West,274,7.0,13.0,49,0.00,,OVC021,0.02,47.00,VWS V14.01,2013-02-06 21:25:00,
2013-02-06 16:28:00,34.4,17.2,29.98,WNW,290,3.0,14.0,49,0.00,,OVC021,0.02,42.00,VWS V14.01,2013-02-06 21:28:00,
2013-02-06 16:30:00,34.4,17.2,29.98,WNW,285,10.0,14.0,49,0.00,,OVC021,0.02,39.00,VWS V14.01,2013-02-06 21:30:00,
2013-02-06 16:33:00,34.2,17.0,29.98,WNW,284,6.0,13.0,49,0.00,,OVC021,0.02,25.00,VWS V14.01,2013-02-06 21:33:00,
2013-02-06 16:35:00,34.2,17.0,29.98,West,271,8.0,13.0,49,0.00,,OVC021,0.02,25.00,VWS V14.01,2013-02-06 21:35:00,
2013-02-06 16:38:00,34.2,17.0,29.98,WNW,282,9.0,16.0,49,0.00,,OVC021,0.02,21.00,VWS V14.01,2013-02-06 21:38:00,
2013-02-06 16:40:00,34.1,17.0,29.98,WNW,294,6.0,16.0,49,0.00,,OVC021,0.02,21.00,VWS V14.01,2013-02-06 21:40:00,
2013-02-06 16:43:00,34.1,17.4,29.98,West,265,5.0,11.0,50,0.00,,OVC021,0.02,18.00,VWS V14.01,2013-02-06 21:43:00,
2013-02-06 16:45:00,34.1,17.4,29.98,West,265,4.0,11.0,50,0.00,,OVC021,0.02,18.00,VWS V14.01,2013-02-06 21:45:00,
2013-02-06 16:48:00,34.0,17.3,29.99,WNW,293,4.0,8.0,50,0.00,,OVC021,0.02,12.00,VWS V14.01,2013-02-06 21:48:00,
2013-02-06 16:50:00,34.0,17.3,29.99,WNW,293,4.0,8.0,50,0.00,,OVC021,0.02,12.00,VWS V14.01,2013-02-06 21:50:00,
2013-02-06 16:53:00,33.7,17.0,29.99,WNW,302,5.0,9.0,50,0.00,,OVC021,0.02,11.00,VWS V14.01,2013-02-06 21:53:00,
2013-02-06 16:55:00,33.7,17.0,29.99,WNW,302,5.0,9.0,50,0.00,,OVC021,0.02,11.00,VWS V14.01,2013-02-06 21:55:00,
2013-02-06 16:58:00,33.5,16.9,29.99,West,267,13.0,14.0,50,0.00,,OVC021,0.02,7.00,VWS V14.01,2013-02-06 21:58:00,
2013-02-06 17:00:00,33.5,16.9,29.99,West,267,13.0,14.0,50,0.00,,OVC021,0.02,7.00,VWS V14.01,2013-02-06 22:00:00,
2013-02-06 17:03:00,33.4,16.3,29.99,WNW,288,5.0,7.0,49,0.00,,OVC021,0.02,5.00,VWS V14.01,2013-02-06 22:03:00,
2013-02-06 17:05:00,33.4,16.3,29.99,WNW,301,6.0,14.0,49,0.00,,OVC021,0.02,5.00,VWS V14.01,2013-02-06 22:05:00,
2013-02-06 17:08:00,33.1,16.0,30.00,WNW,293,12.0,16.0,49,0.00,,OVC021,0.02,0.00,VWS V14.01,2013-02-06 22:08:00,
2013-02-06 17:10:00,33.1,16.0,30.00,WNW,286,9.0,10.0,49,0.00,,OVC021,0.02,0.00,VWS V14.01,2013-02-06 22:10:00,
2013-02-06 17:13:00,33.0,15.5,30.00,WNW,295,6.0,12.0,48,0.00,,OVC021,0.02,0.00,VWS V14.01,2013-02-06 22:13:00,
2013-02-06 17:15:00,33.0,15.5,30.00,WNW,293,12.0,16.0,48,0.00,,OVC021,0.02,0.00,VWS V14.01,2013-02-06 22:15:00,
2013-02-06 17:19:00,32.9,15.4,30.00,West,279,9.0,13.0,48,0.00,,OVC021,0.02,0.00,VWS V14.01,2013-02-06 22:19:00,
2013-02-06 17:20:00,32.9,15.4,30.00,West,264,9.0,13.0,48,0.00,,OVC021,0.02,0.00,VWS V14.01,2013-02-06 22:20:00,
2013-02-06 17:24:00,32.8,15.3,30.01,NW,313,6.0,11.0,48,0.00,,OVC021,0.02,0.00,VWS V14.01,2013-02-06 22:24:00,
2013-02-06 17:25:00,32.8,15.3,30.01,NW,309,10.0,15.0,48,0.00,,OVC021,0.02,0.00,VWS V14.01,2013-02-06 22:25:00,
2013-02-06 17:29:00,32.7,15.2,30.01,WNW,290,6.0,13.0,48,0.00,,OVC021,0.02,0.00,VWS V14.01,2013-02-06 22:29:00,
2013-02-06 17:30:00,32.7,14.7,30.01,West,270,7.0,12.0,47,0.00,,OVC021,0.02,0.00,VWS V14.01,2013-02-06 22:30:00,
2013-02-06 17:34:00,32.6,15.1,30.01,NW,315,6.0,6.0,48,0.00,,OVC021,0.02,0.00,VWS V14.01,2013-02-06 22:34:00,
2013-02-06 17:35:00,32.7,14.7,30.01,NW,304,5.0,13.0,47,0.00,,OVC021,0.02,0.00,VWS V14.01,2013-02-06 22:35:00,
2013-02-06 17:39:00,32.6,15.1,30.02,WNW,303,8.0,11.0,48,0.00,,OVC021,0.02,0.00,VWS V14.01,2013-02-06 22:39:00,
2013-02-06 17:40:00,32.6,14.6,30.02,WNW,302,5.0,9.0,47,0.00,,OVC021,0.02,0.00,VWS V14.01,2013-02-06 22:40:00,
2013-02-06 17:44:00,32.4,14.9,30.02,WNW,285,6.0,8.0,48,0.00,,OVC021,0.02,0.00,VWS V14.01,2013-02-06 22:44:00,
2013-02-06 17:45:00,32.5,15.0,30.02,West,265,6.0,11.0,48,0.00,,OVC021,0.02,0.00,VWS V14.01,2013-02-06 22:45:00,
2013-02-06 17:49:00,32.3,14.8,30.03,WNW,300,5.0,6.0,48,0.00,,OVC021,0.02,0.00,VWS V14.01,2013-02-06 22:49:00,
2013-02-06 17:50:00,32.3,14.8,30.02,West,272,5.0,9.0,48,0.00,,OVC021,0.02,0.00,VWS V14.01,2013-02-06 22:50:00,
2013-02-06 17:54:00,32.2,14.7,30.03,WNW,290,6.0,6.0,48,0.00,,OVC021,0.02,0.00,VWS V14.01,2013-02-06 22:54:00,
2013-02-06 17:55:00,32.2,14.7,30.03,WNW,289,3.0,6.0,48,0.00,,OVC021,0.02,0.00,VWS V14.01,2013-02-06 22:55:00,
2013-02-06 17:59:00,31.9,14.4,30.03,WNW,297,11.0,13.0,48,0.00,,OVC021,0.02,0.00,VWS V14.01,2013-02-06 22:59:00,
2013-02-06 18:00:00,32.0,14.6,30.03,WNW,284,2.0,9.0,48,0.00,,OVC021,0.02,0.00,VWS V14.01,2013-02-06 23:00:00,
2013-02-06 18:04:00,31.9,14.0,30.03,WNW,288,5.0,8.0,47,0.00,,OVC021,0.02,0.00,VWS V14.01,2013-02-06 23:04:00,
2013-02-06 18:05:00,31.9,14.0,30.03,West,271,6.0,13.0,47,0.00,,OVC021,0.02,0.00,VWS V14.01,2013-02-06 23:05:00,
2013-02-06 18:09:00,31.7,13.8,30.04,West,265,6.0,10.0,47,0.00,,OVC021,0.02,0.00,VWS V14.01,2013-02-06 23:09:00,
2013-02-06 18:10:00,31.7,13.8,30.04,West,273,7.0,11.0,47,0.00,,OVC021,0.02,0.00,VWS V14.01,2013-02-06 23:10:00,
2013-02-06 18:14:00,31.7,13.8,30.04,WNW,303,9.0,11.0,47,0.00,,OVC021,0.02,0.00,VWS V14.01,2013-02-06 23:14:00,
2013-02-06 18:15:00,31.7,13.3,30.04,NW,316,8.0,14.0,46,0.00,,OVC021,0.02,0.00,VWS V14.01,2013-02-06 23:15:00,
2013-02-06 18:20:00,31.6,13.2,30.05,WNW,290,5.0,13.0,46,0.00,,OVC021,0.02,0.00,VWS V14.01,2013-02-06 23:20:00,
2013-02-06 18:25:00,31.6,13.2,30.05,NW,308,8.0,12.0,46,0.00,,OVC021,0.02,0.00,VWS V14.01,2013-02-06 23:25:00,
2013-02-06 18:30:00,31.4,13.0,30.05,WSW,250,7.0,9.0,46,0.00,,OVC021,0.02,0.00,VWS V14.01,2013-02-06 23:30:00,
2013-02-06 18:35:00,31.3,12.9,30.06,West,281,8.0,12.0,46,0.00,,OVC021,0.02,0.00,VWS V14.01,2013-02-06 23:35:00,
2013-02-06 18:40:00,31.2,12.8,30.06,West,265,3.0,10.0,46,0.00,,OVC021,0.02,0.00,VWS V14.01,2013-02-06 23:40:00,
2013-02-06 18:45:00,31.1,12.8,30.07,NW,317,7.0,12.0,46,0.00,,OVC021,0.02,0.00,VWS V14.01,2013-02-06 23:45:00,
2013-02-06 18:50:00,30.9,12.6,30.07,WNW,299,6.0,11.0,46,0.00,,OVC021,0.02,0.00,VWS V14.01,2013-02-06 23:50:00,
2013-02-06 18:55:00,30.8,12.5,30.07,West,267,8.0,13.0,46,0.00,,OVC021,0.02,0.00,VWS V14.01,2013-02-06 23:55:00,
2013-02-06 19:00:00,30.8,12.5,30.07,WNW,292,7.0,13.0,46,0.00,,OVC021,0.02,0.00,VWS V14.01,2013-02-07 00:00:00,
2013-02-06 19:05:00,30.6,12.3,30.08,West,273,7.0,14.0,46,0.00,,OVC021,0.02,0.00,VWS V14.01,2013-02-07 00:05:00,
2013-02-06 19:10:00,30.6,11.8,30.08,WNW,289,5.0,14.0,45,0.00,,OVC021,0.02,0.00,VWS V14.01,2013-02-07 00:10:00,
2013-02-06 19:15:00,30.4,12.1,30.08,West,272,6.0,13.0,46,0.00,,OVC021,0.02,0.00,VWS V14.01,2013-02-07 00:15:00,
2013-02-06 19:20:00,30.3,11.5,30.08,WSW,246,11.0,14.0,45,0.00,,OVC021,0.02,0.00,VWS V14.01,2013-02-07 00:20:00,
2013-02-06 19:25:00,30.2,10.9,30.09,West,277,6.0,13.0,44,0.00,,OVC021,0.02,0.00,VWS V14.01,2013-02-07 00:25:00,
2013-02-06 19:30:00,30.1,10.3,30.09,West,269,10.0,15.0,43,0.00,,OVC021,0.02,0.00,VWS V14.01,2013-02-07 00:30:00,
2013-02-06 19:35:00,30.1,10.3,30.09,WNW,294,5.0,18.0,43,0.00,,OVC021,0.02,0.00,VWS V14.01,2013-02-07 00:35:00,
2013-02-06 19:40:00,30.0,9.7,30.09,West,270,8.0,15.0,42,0.00,,OVC021,0.02,0.00,VWS V14.01,2013-02-07 00:40:00,
2013-02-06 19:45:00,29.9,9.6,30.10,West,265,6.0,14.0,42,0.00,,OVC021,0.02,0.00,VWS V14.01,2013-02-07 00:45:00,
2013-02-06 19:50:00,29.8,9.0,30.10,WNW,288,7.0,14.0,41,0.00,,OVC021,0.02,0.00,VWS V14.01,2013-02-07 00:50:00,
2013-02-06 19:55:00,29.6,8.3,30.10,WNW,293,6.0,13.0,40,0.00,,OVC021,0.02,0.00,VWS V14.01,2013-02-07 00:55:00,
2013-02-06 20:00:00,29.5,8.2,30.11,WNW,290,9.0,16.0,40,0.00,,OVC021,0.02,0.00,VWS V14.01,2013-02-07 01:00:00,
2013-02-06 20:05:00,29.6,8.3,30.11,WNW,289,3.0,15.0,40,0.00,,OVC021,0.02,0.00,VWS V14.01,2013-02-07 01:05:00,
2013-02-06 20:10:00,29.4,8.6,30.11,West,263,7.0,12.0,41,0.00,,OVC021,0.02,0.00,VWS V14.01,2013-02-07 01:10:00,
2013-02-06 20:15:00,29.1,8.9,30.11,West,275,3.0,11.0,42,0.00,,OVC021,0.02,0.00,VWS V14.01,2013-02-07 01:15:00,
2013-02-06 20:20:00,29.0,8.8,30.11,West,269,5.0,12.0,42,0.00,,OVC021,0.02,0.00,VWS V14.01,2013-02-07 01:20:00,
2013-02-06 20:25:00,29.0,8.3,30.12,WNW,303,5.0,12.0,41,0.00,,OVC021,0.02,0.00,VWS V14.01,2013-02-07 01:25:00,
2013-02-06 20:30:00,28.9,8.2,30.12,West,275,10.0,13.0,41,0.00,,OVC021,0.02,0.00,VWS V14.01,2013-02-07 01:30:00,
2013-02-06 20:35:00,28.8,8.1,30.12,WNW,283,1.0,13.0,41,0.00,,OVC021,0.02,0.00,VWS V14.01,2013-02-07 01:35:00,
2013-02-06 20:40:00,28.7,8.5,30.13,West,268,8.0,13.0,42,0.00,,OVC021,0.02,0.00,VWS V14.01,2013-02-07 01:40:00,
2013-02-06 20:45:00,28.5,8.3,30.13,NW,319,2.0,11.0,42,0.00,,OVC021,0.02,0.00,VWS V14.01,2013-02-07 01:45:00,
2013-02-06 20:50:00,28.3,8.2,30.13,WSW,258,10.0,10.0,42,0.00,,OVC021,0.02,0.00,VWS V14.01,2013-02-07 01:50:00,
2013-02-06 20:55:00,28.3,7.6,30.13,WNW,298,9.0,14.0,41,0.00,,OVC021,0.02,0.00,VWS V14.01,2013-02-07 01:55:00,
2013-02-06 21:00:00,28.2,7.0,30.14,WNW,284,10.0,16.0,40,0.00,,OVC021,0.02,0.00,VWS V14.01,2013-02-07 02:00:00,
2013-02-06 21:05:00,28.2,7.0,30.14,NW,315,6.0,13.0,40,0.00,,OVC021,0.02,0.00,VWS V14.01,2013-02-07 02:05:00,
2013-02-06 21:10:00,28.1,6.3,30.14,WSW,250,5.0,14.0,39,0.00,,OVC021,0.02,0.00,VWS V14.01,2013-02-07 02:10:00,
2013-02-06 21:15:00,28.0,6.3,30.15,WNW,283,9.0,12.0,39,0.00,,OVC021,0.02,0.00,VWS V14.01,2013-02-07 02:15:00,
2013-02-06 21:20:00,27.8,6.1,30.15,WSW,250,8.0,9.0,39,0.00,,OVC021,0.02,0.00,VWS V14.01,2013-02-07 02:20:00,
2013-02-06 21:25:00,27.6,5.9,30.16,West,277,9.0,10.0,39,0.00,,OVC021,0.02,0.00,VWS V14.01,2013-02-07 02:25:00,
2013-02-06 21:30:00,27.6,5.3,30.16,West,266,7.0,12.0,38,0.00,,OVC021,0.02,0.00,VWS V14.01,2013-02-07 02:30:00,
2013-02-06 21:35:00,27.5,5.2,30.16,WNW,292,5.0,11.0,38,0.00,,OVC021,0.02,0.00,VWS V14.01,2013-02-07 02:35:00,
2013-02-06 21:40:00,27.5,5.2,30.16,WNW,295,4.0,7.0,38,0.00,,OVC021,0.02,0.00,VWS V14.01,2013-02-07 02:40:00,
2013-02-06 21:45:00,27.3,5.6,30.17,WNW,284,5.0,9.0,39,0.00,,OVC021,0.02,0.00,VWS V14.01,2013-02-07 02:45:00,
2013-02-06 21:50:00,27.2,5.5,30.17,NW,317,4.0,10.0,39,0.00,,OVC021,0.02,0.00,VWS V14.01,2013-02-07 02:50:00,
2013-02-06 21:55:00,27.1,5.4,30.17,West,264,6.0,9.0,39,0.00,,OVC021,0.02,0.00,VWS V14.01,2013-02-07 02:55:00,
2013-02-06 22:00:00,26.9,5.3,30.17,West,279,3.0,8.0,39,0.00,,OVC021,0.02,0.00,VWS V14.01,2013-02-07 03:00:00,
2013-02-06 22:05:00,26.8,5.2,30.18,NW,315,3.0,9.0,39,0.00,,OVC021,0.02,0.00,VWS V14.01,2013-02-07 03:05:00,
2013-02-06 22:10:00,26.7,5.1,30.18,WNW,302,7.0,7.0,39,0.00,,OVC021,0.02,0.00,VWS V14.01,2013-02-07 03:10:00,
2013-02-06 22:15:00,26.6,5.0,30.19,West,279,3.0,8.0,39,0.00,,OVC021,0.02,0.00,VWS V14.01,2013-02-07 03:15:00,
2013-02-06 22:20:00,26.5,4.9,30.19,WNW,292,9.0,9.0,39,0.00,,OVC021,0.02,0.00,VWS V14.01,2013-02-07 03:20:00,
2013-02-06 22:25:00,26.4,5.4,30.19,WNW,296,3.0,9.0,40,0.00,,OVC021,0.02,0.00,VWS V14.01,2013-02-07 03:25:00,
2013-02-06 22:30:00,26.2,4.6,30.20,WNW,290,6.0,10.0,39,0.00,,OVC021,0.02,0.00,VWS V14.01,2013-02-07 03:30:00,
2013-02-06 22:35:00,26.3,4.7,30.20,WSW,257,5.0,9.0,39,0.00,,OVC021,0.02,0.00,VWS V14.01,2013-02-07 03:35:00,
2013-02-06 22:40:00,26.2,4.6,30.20,West,277,3.0,7.0,39,0.00,,OVC021,0.02,0.00,VWS V14.01,2013-02-07 03:40:00,
2013-02-06 22:45:00,26.1,4.5,30.20,WNW,287,5.0,10.0,39,0.00,,OVC021,0.02,0.00,VWS V14.01,2013-02-07 03:45:00,
2013-02-06 22:50:00,26.1,4.5,30.21,WSW,249,6.0,8.0,39,0.00,,OVC021,0.02,0.00,VWS V14.01,2013-02-07 03:50:00,
2013-02-06 22:55:00,25.9,4.4,30.21,WSW,252,6.0,11.0,39,0.00,,OVC021,0.02,0.00,VWS V14.01,2013-02-07 03:55:00,
2013-02-06 23:00:00,25.8,4.3,30.21,West,270,7.0,9.0,39,0.00,,OVC021,0.02,0.00,VWS V14.01,2013-02-07 04:00:00,
2013-02-06 23:05:00,25.6,4.1,30.21,WNW,300,5.0,8.0,39,0.00,,OVC021,0.02,0.00,VWS V14.01,2013-02-07 04:05:00,
2013-02-06 23:10:00,25.7,4.2,30.20,West,275,4.0,11.0,39,0.00,,OVC021,0.02,0.00,VWS V14.01,2013-02-07 04:10:00,
2013-02-06 23:15:00,25.5,4.0,30.20,WNW,285,4.0,7.0,39,0.00,,OVC021,0.02,0.00,VWS V14.01,2013-02-07 04:15:00,
2013-02-06 23:20:00,25.4,3.9,30.20,WNW,290,2.0,8.0,39,0.00,,OVC021,0.02,0.00,VWS V14.01,2013-02-07 04:20:00,
2013-02-06 23:25:00,25.2,4.3,30.21,WNW,293,4.0,8.0,40,0.00,,OVC021,0.02,0.00,VWS V14.01,2013-02-07 04:25:00,
2013-02-06 23:30:00,25.1,4.2,30.20,NW,319,6.0,9.0,40,0.00,,OVC021,0.02,0.00,VWS V14.01,2013-02-07 04:30:00,
2013-02-06 23:35:00,25.0,4.1,30.21,WNW,298,5.0,8.0,40,0.00,,OVC021,0.02,0.00,VWS V14.01,2013-02-07 04:35:00,
2013-02-06 23:40:00,25.0,4.1,30.21,NNW,330,3.0,9.0,40,0.00,,OVC021,0.02,0.00,VWS V14.01,2013-02-07 04:40:00,
2013-02-06 23:45:00,24.8,3.4,30.22,WNW,301,2.0,5.0,39,0.00,,OVC021,0.02,0.00,VWS V14.01,2013-02-07 04:45:00,
2013-02-06 23:50:00,24.7,3.8,30.22,WNW,290,4.0,6.0,40,0.00,,OVC021,0.02,0.00,VWS V14.01,2013-02-07 04:50:00,
2013-02-06 23:55:00,24.6,3.7,30.22,NW,315,4.0,5.0,40,0.00,,OVC021,0.02,0.00,VWS V14.01,2013-02-07 04:55:00,